Blakely, GA

2:56 PM EDT on October 01, 2016 (GMT -0400)
Blakely

Weather History for KBIJ - March, 2012

Change the Weather History Date:

Thursday, March 22, 2012

  Actual Average (KDHN) Record (KDHN)
Temperature  
Mean Temperature 70 °F 60 °F  
Max Temperature 82 °F 72 °F 84 °F (1948)
Min Temperature 59 °F 48 °F 31 °F (1960)
Degree Days  
Heating Degree Days 0 6  
Month to date heating degree days 166  
Since 1 July heating degree days 1725  
Cooling Degree Days 6 1  
Month to date cooling degree days 21  
Year to date cooling degree days 31  
Growing Degree Days 20 (Base 50)    
Moisture  
Dew Point 52 °F    
Average Humidity 53    
Maximum Humidity 100    
Minimum Humidity 25    
Precipitation  
Precipitation 0.00 in 0.19 in 1.58 in (2005)
Month to date precipitation 3.76  
Year to date precipitation 13.16  
Sea Level Pressure  
Sea Level Pressure 30.13 in    
Wind  
Wind Speed 2 mph (SSE)    
Max Wind Speed 10 mph    
Max Gust Speed -    
Visibility 8 miles    
Events Rain    
T = Trace of Precipitation, MM = Missing Value Source: NWS Daily Summary

Daily Weather History Graph

Daily Weather History Graph

Search for Another Location

Airport or City:

Trip Planner

Search our weather history database for the weather conditions in past years. The results will help you decide how hot, cold, wet, or windy it might be!

Date:

Astronomy

Mar. 22, 2012 Rise Set
Actual Time 7:40 AM EDT 7:52 PM EDT
Civil Twilight 7:16 AM EDT 8:17 PM EDT
Nautical Twilight 6:47 AM EDT 8:45 PM EDT
Astronomical Twilight 6:19 AM EDT 9:14 PM EDT
Moon 7:22 AM EDT (3/22) 8:11 PM EDT (3/22)
Length of Visible Light 13h 01m
Length of Day
12h 12m
New Moon, 0% of the Moon is Illuminated
Mar 22
New Moon
Mar 30
First Quarter
Apr 6
Full
Apr 13
Last Quarter
Apr 21
New

Hourly Weather History & Observations

Time (EDT) Temp. Dew Point Humidity Pressure Visibility Wind Dir Wind Speed Gust Speed Precip Events Conditions
12:15 AM 60.8 °F 46.4 °F 59% 30.14 in 10.0 mi East 3.5 mph - N/A   Clear
12:35 AM 60.8 °F 46.4 °F 59% 30.15 in 10.0 mi Calm Calm - N/A   Clear
12:55 AM 59.0 °F 48.2 °F 67% 30.15 in 10.0 mi Calm Calm - N/A   Clear
1:15 AM 59.0 °F 51.8 °F 77% 30.15 in 10.0 mi Calm Calm - N/A   Clear
1:35 AM 59.0 °F 59.0 °F 100% 30.15 in 7.0 mi Calm Calm - N/A   Clear
1:55 AM 59.0 °F 59.0 °F 100% 30.15 in 7.0 mi Calm Calm - N/A   Clear
2:15 AM - - N/A% 30.15 in 7.0 mi Calm Calm - N/A   Clear
2:35 AM - - N/A% 30.14 in 7.0 mi Calm Calm - N/A   Clear
2:55 AM - - N/A% 30.14 in 7.0 mi Calm Calm - N/A   Clear
3:15 AM - - N/A% 30.13 in 7.0 mi Calm Calm - N/A   Clear
3:35 AM - - N/A% 30.12 in 7.0 mi Calm Calm - N/A   Clear
3:55 AM - - N/A% 30.12 in 7.0 mi Calm Calm - N/A   Clear
4:15 AM - - N/A% 30.11 in 1.5 mi Calm Calm - N/A   Mist
4:35 AM - - N/A% 30.10 in 7.0 mi Calm Calm - N/A   Clear
4:55 AM - - N/A% 30.10 in 5.0 mi Calm Calm - N/A   Haze
5:15 AM - - N/A% 30.10 in 7.0 mi Calm Calm - N/A   Clear
5:35 AM - - N/A% 30.10 in 10.0 mi Calm Calm - N/A   Clear
5:55 AM - - N/A% 30.10 in 5.0 mi Calm Calm - N/A   Haze
6:15 AM - - N/A% 30.11 in 5.0 mi Calm Calm - N/A   Haze
6:35 AM - - N/A% 30.10 in 5.0 mi ENE 3.5 mph - N/A   Haze
6:55 AM - - N/A% 30.11 in 7.0 mi East 3.5 mph - N/A   Clear
7:15 AM - - N/A% 30.11 in 7.0 mi East 3.5 mph - N/A   Clear
7:35 AM - - N/A% 30.13 in 7.0 mi Calm Calm - N/A   Clear
7:55 AM - - N/A% 30.13 in 2.5 mi Calm Calm - N/A   Mist
8:15 AM - - N/A% 30.14 in 1.5 mi Calm Calm - N/A   Mist
8:35 AM - - N/A% 30.15 in 4.0 mi Calm Calm - N/A   Haze
8:55 AM - - N/A% 30.15 in 5.0 mi Calm Calm - N/A   Haze
9:15 AM - - N/A% 30.17 in 7.0 mi South 3.5 mph - N/A   Overcast
9:35 AM - - N/A% 30.17 in 5.0 mi Calm Calm - N/A   Haze
9:55 AM - - N/A% 30.17 in 4.0 mi SSE 3.5 mph - N/A   Haze
10:15 AM - - N/A% 30.18 in 5.0 mi South 4.6 mph - N/A   Haze
10:35 AM - - N/A% 30.18 in 7.0 mi SE 5.8 mph - N/A   Overcast
10:55 AM 69.8 °F 68.0 °F 94% 30.18 in 10.0 mi SSE 6.9 mph - N/A   Overcast
11:15 AM 69.8 °F 66.2 °F 88% 30.17 in 7.0 mi ESE 6.9 mph - N/A   Overcast
11:35 AM 73.4 °F 62.6 °F 69% 30.17 in 7.0 mi SE 4.6 mph - N/A   Mostly Cloudy
11:55 AM 73.4 °F 62.6 °F 69% 30.17 in 10.0 mi SE 5.8 mph - N/A   Scattered Clouds
12:15 PM 73.4 °F 60.8 °F 65% 30.16 in 10.0 mi South 6.9 mph - N/A   Scattered Clouds
12:35 PM 75.2 °F 53.6 °F 47% 30.16 in 10.0 mi SSE 10.4 mph - N/A   Mostly Cloudy
12:55 PM 75.2 °F 51.8 °F 44% 30.15 in 10.0 mi SE 5.8 mph - N/A   Mostly Cloudy
1:15 PM 77.0 °F 51.8 °F 41% 30.15 in 10.0 mi SE 9.2 mph - N/A   Mostly Cloudy
1:35 PM 77.0 °F 51.8 °F 41% 30.14 in 10.0 mi South 6.9 mph - N/A   Overcast
1:55 PM 77.0 °F 51.8 °F 41% 30.14 in 10.0 mi South 6.9 mph - N/A   Overcast
2:15 PM 78.8 °F 50.0 °F 36% 30.13 in 10.0 mi SSW 5.8 mph - N/A   Scattered Clouds
2:35 PM 77.0 °F 50.0 °F 39% 30.12 in 10.0 mi South 4.6 mph - N/A   Mostly Cloudy
2:55 PM 77.0 °F 51.8 °F 41% 30.12 in 10.0 mi South 5.8 mph - N/A Rain Light Rain
3:15 PM 78.8 °F 50.0 °F 36% 30.11 in 10.0 mi SSW 5.8 mph - N/A   Scattered Clouds
3:35 PM 78.8 °F 50.0 °F 36% 30.10 in 10.0 mi SSE 5.8 mph - N/A   Scattered Clouds
3:55 PM 80.6 °F 48.2 °F 32% 30.08 in 10.0 mi South 5.8 mph - N/A   Scattered Clouds
4:15 PM 82.4 °F 42.8 °F 25% 30.07 in 10.0 mi SSE 8.1 mph - N/A   Scattered Clouds
4:35 PM 82.4 °F 42.8 °F 25% 30.06 in 10.0 mi South 9.2 mph - N/A   Scattered Clouds
4:55 PM 82.4 °F 42.8 °F 25% 30.05 in 10.0 mi South 9.2 mph - N/A   Scattered Clouds
5:15 PM 80.6 °F 42.8 °F 26% 30.05 in 10.0 mi South 6.9 mph - N/A   Scattered Clouds
5:35 PM 82.4 °F 44.6 °F 26% 30.05 in 10.0 mi South 8.1 mph - N/A   Scattered Clouds
5:55 PM 80.6 °F 44.6 °F 28% 30.05 in 10.0 mi South 6.9 mph - N/A   Clear
6:15 PM 80.6 °F 44.6 °F 28% 30.05 in 10.0 mi South 10.4 mph - N/A   Clear
6:35 PM 78.8 °F 44.6 °F 30% 30.06 in 10.0 mi South 8.1 mph - N/A   Clear
6:55 PM 78.8 °F 46.4 °F 32% 30.06 in 10.0 mi South 5.8 mph - N/A   Clear
7:15 PM 78.8 °F 46.4 °F 32% 30.07 in 10.0 mi South 5.8 mph - N/A   Clear
7:55 PM 77.0 °F 48.2 °F 36% 30.08 in 10.0 mi Calm Calm - N/A   Scattered Clouds
8:15 PM 75.2 °F 50.0 °F 41% 30.08 in 10.0 mi Calm Calm - N/A   Clear
8:35 PM 71.6 °F 51.8 °F 50% 30.08 in 10.0 mi Calm Calm - N/A   Clear
8:55 PM 69.8 °F 53.6 °F 56% 30.08 in 10.0 mi Calm Calm - N/A   Clear
9:15 PM 71.6 °F 51.8 °F 50% 30.08 in 10.0 mi Calm Calm - N/A   Clear
9:35 PM 71.6 °F 51.8 °F 50% 30.09 in 10.0 mi Calm Calm - N/A   Clear
10:15 PM 64.4 °F 53.6 °F 68% 30.11 in 10.0 mi Calm Calm - N/A   Clear
10:35 PM 66.2 °F 53.6 °F 64% 30.12 in 10.0 mi Calm Calm - N/A   Clear
10:55 PM 64.4 °F 53.6 °F 68% 30.11 in 10.0 mi Calm Calm - N/A   Scattered Clouds
11:15 PM 64.4 °F 59.0 °F 83% 30.11 in 10.0 mi Calm Calm - N/A   Scattered Clouds
11:35 PM 66.2 °F 53.6 °F 64% 30.10 in 10.0 mi Calm Calm - N/A   Clear
11:55 PM 64.4 °F 55.4 °F 73% 30.11 in 10.0 mi Calm Calm - N/A   Clear